Location: Austin, TX
(30.3000°N, 97.7500°W)
Time: 01:39:45
(UTC-06:00)

Daily predictions for brighter satellites

Satellite Brightness Start Highest point End
(mag) Time Altitude Azimuth Time Altitude Azimuth Time Altitude Azimuth
CZ-4C R/B 4.3 04:00:42 19° NE 04:00:42 19° NE 04:02:21 10° NNE
ADEOS II 4.4 04:00:51 10° NNE 04:02:05 17° NNE 04:02:05 17° NNE
USA 234 3.0 04:41:20 10° NE 04:47:51 78° NW 04:48:27 72° W
Cosmos 1417 Rocket 4.3 04:51:52 35° S 04:54:41 89° W 05:00:50 10° N
Cosmos 1782 4.2 04:54:34 22° SE 04:56:33 37° E 05:00:13 10° NNE
CZ-4B R/B 4.4 04:53:34 10° NNE 04:57:34 60° E 04:57:34 60° E
ATLAS 3B R/B 2.9 04:54:41 30° SSW 04:58:54 81° ESE 05:06:21 10° NNE
Meteor 1-14 Rocket 4.2 05:00:28 10° N 05:06:14 83° E 05:11:50 10° S
Okean-O 2.4 05:07:38 10° N 05:12:04 80° WNW 05:12:14 79° WSW
Cosmos 2219 3.6 05:06:53 10° NNW 05:12:29 62° ENE 05:18:01 10° SSE
Thor Agena Rocket 4.1 05:10:30 10° SSE 05:15:38 60° ENE 05:20:42 10° N
Cosmos 1607 3.7 05:13:17 38° SW 05:15:44 76° WNW 05:21:53 10° NNE
Delta 2 Rocket 4.2 05:16:35 42° NNW 05:17:08 45° N 05:22:00 10° ENE
Meteor 1-31 Rocket 3.9 05:15:13 10° N 05:17:22 31° N 05:17:22 31° N
Okean 2 Rocket 3.0 05:15:19 10° N 05:19:43 87° E 05:24:08 10° S
Meteor 1-25 Rocket 4.4 05:15:45 10° N 05:21:37 79° E 05:27:26 10° S
Cosmos 1244 Rocket 4.5 05:17:34 10° NNW 05:23:34 53° W 05:29:29 10° SSW
Cosmos 1741 Rocket 4.3 05:24:05 10° N 05:29:18 67° ENE 05:34:32 10° SSE
SL-08 R/B 4.4 05:25:53 10° N 05:32:12 76° W 05:38:31 10° S
Cosmos 614 Rocket 3.8 05:30:31 10° NNW 05:35:38 81° WSW 05:40:47 10° S
Meteor 2-11 Rocket 4.4 05:29:38 10° S 05:35:44 86° W 05:41:54 10° N
Cosmos 1140 Rocket 3.5 05:30:48 10° NNW 05:35:56 58° WSW 05:41:04 10° S
Cosmos 2151 Rocket 4.0 05:35:25 10° N 05:39:52 64° E 05:44:16 10° SSE
COSMO-SKYMED 1 3.3 05:37:59 10° SSE 05:42:13 56° ENE 05:46:28 10° N
S3M 4.3 05:38:11 10° SSW 05:44:10 44° W 05:50:08 10° N
ADEOS II 4.0 05:42:05 10° NNW 05:43:03 13° NW 05:43:03 13° NW
CZ-4C R/B 3.9 05:45:55 14° NW 05:45:59 14° NW 05:48:53 10° NNW
Meteor 1-10 Rocket 4.2 05:41:52 10° SSW 05:47:21 61° W 05:52:55 10° N
Cosmos 1553 Rocket 4.4 05:43:58 10° SW 05:49:35 37° W 05:55:20 10° NNW
ISS -1.7 05:52:21 10° SSW 05:55:21 33° SE 05:58:22 10° ENE
USA 81 4.2 05:51:20 10° SSW 05:56:26 51° W 06:01:33 10° N
CZ-4 R/B 4.0 05:58:16 10° NE 06:01:40 25° E 06:04:59 10° SSE
Radarsat Rocket 4.2 05:57:21 10° N 06:04:03 60° WNW 06:10:02 10° SSW
EPKM 4.4 05:49:20 17° W 06:04:13 65° S 06:08:47 10° ESE
SWIFT 4.5 06:03:06 10° SW 06:06:03 18° S 06:09:01 10° SE
CSL-04 Rocket 4.0 06:01:21 10° NNE 06:06:46 70° ESE 06:12:14 10° S
COSMOS 2455 2.8 06:02:59 10° SSW 06:09:00 85° WNW 06:15:04 10° NNE
Cosmos 1606 3.9 06:11:46 10° SW 06:14:50 22° W 06:17:56 10° NNW
Cosmos 2082 4.5 06:10:50 10° N 06:16:22 55° ENE 06:21:51 10° SE
Cosmos 1536 4.1 06:14:21 10° N 06:18:13 46° E 06:22:05 10° SSE
Meteor 1-27 Rocket 3.9 06:15:15 10° SSW 06:20:50 53° W 06:26:35 10° N
Lacrosse 5 rocket 2.6 06:18:37 10° NNW 06:21:55 34° NE 06:25:15 10° ESE
Cosmos 1975 Rocket 4.1 06:18:51 10° S 06:23:07 52° E 06:27:22 10° NNE
Okean 3 3.5 06:19:23 10° S 06:23:40 83° W 06:27:59 10° N
Ariane Rocket 3.0 06:19:31 10° N 06:24:32 64° WNW 06:29:31 10° SSW
Cosmos 1602 3.7 06:22:33 10° NNW 06:26:28 63° W 06:30:21 10° S
Cosmos 1300 Rocket 3.5 06:22:20 10° N 06:26:45 74° W 06:31:05 10° S
Cosmos 2369 4.1 06:21:55 10° SW 06:27:11 40° WNW 06:32:30 10° N
Cosmos 1709 Rocket 3.9 06:21:26 10° N 06:27:32 72° W 06:33:40 10° S
SKYMED 2 4.2 06:26:20 10° SSW 06:30:16 34° W 06:34:14 10° NNW
GEOS 3 Rocket 4.4 06:25:57 10° S 06:30:20 29° WSW 06:34:45 10° NW
NOSS 3-2 (A) 3.4 06:24:51 10° SSW 06:30:44 79° WNW 06:37:06 10° NNE
USA 238 DEB 4.3 06:25:51 10° WSW 06:32:13 37° NW 06:38:38 10° NNE
USA 238 4.3 06:25:54 10° WSW 06:32:18 37° NW 06:38:45 10° NNE
Cosmos 2297 Rocket 2.5 06:31:22 10° NNW 06:37:01 75° ENE 06:42:38 10° SSE
